Location: Bathsheba
(13.2167°N, 59.5167°W)
Time: 23:55:57
(UTC+00:00)

MOS 1 Rocket - Pass Details

Date: 18 September 2020
Orbit: 613 x 831 km, 97.4° (Epoch: 20 October)

Event Time Altitude Azimuth Distance (km) Brightness Sun altitude
Rises 22:25:52 0° 23° (NNE) 2,896 6.3 -7.9°
Reaches altitude 10° 22:28:10 10° 31° (NNE) 1,976 5.4 -8.5°
Maximum altitude 22:32:10 39° 100° (E) 922 3.5 -9.5°
Drops below altitude 10° 22:36:08 10° 169° (S) 1,970 5.5 -10.4°
Sets 22:38:26 0° 177° (S) 2,885 6.4 -11.0°
